Location: Unspecified
(0.0000°N, 0.0000°E)
Time: 21:37:14
(UTC+00:00)

Vanguard 3 - All Passes

Search period start: 13 November 2024 00:00
Search period end: 23 November 2024 00:00
Orbit: 508 x 3221 km, 33.3° (Epoch: 12 November)

Date Brightness Start Highest point End Pass type
(mag) Time Alt. Az. Time Alt. Az. Time Alt. Az.
13 Nov - 04:54:51 10° S 05:00:24 13° SSE 05:07:01 10° SE visible
13 Nov - 07:03:12 10° SSW 07:17:15 42° SE 07:35:05 10° E daylight
13 Nov - 09:15:36 10° SW 09:33:56 88° NW 09:52:50 10° NE daylight
13 Nov - 11:33:23 10° W 11:50:56 39° NW 12:05:26 10° NNE daylight
13 Nov - 14:01:41 10° NW 14:08:32 13° NNW 14:14:20 10° N daylight
13 Nov - 20:51:01 10° NW 20:55:10 52° NE 20:58:45 10° ESE night (unlit)
13 Nov - 23:05:22 10° SW 23:06:18 11° SSW 23:07:15 10° SSW night (unlit)
14 Nov - 05:44:26 10° SSW 05:54:38 25° SE 06:08:09 10° E daylight
14 Nov - 07:54:47 10° SW 08:10:49 66° SE 08:30:20 10° ENE daylight
14 Nov - 10:09:12 10° WSW 10:27:43 60° NW 10:45:19 10° NE daylight
14 Nov - 12:31:14 10° WNW 12:45:12 24° NNW 12:56:33 10° NNE daylight
14 Nov - 19:31:53 10° NNW 19:35:41 19° NNE 19:38:41 10° ENE visible
14 Nov - 21:43:21 10° W 21:46:51 31° SW 21:50:13 10° SSE night (unlit)
15 Nov - 04:27:56 10° S 04:32:15 12° SSE 04:37:17 10° SE visible
15 Nov - 06:35:10 10° SSW 06:48:11 42° SE 07:05:51 10° ENE daylight
15 Nov - 08:47:07 10° SW 09:04:25 85° NW 09:23:59 10° NE daylight
15 Nov - 11:04:29 10° W 11:21:46 39° NNW 11:37:07 10° NNE daylight
15 Nov - 13:32:06 10° NW 13:40:15 15° NNW 13:47:09 10° N daylight
15 Nov - 18:13:28 10° N 18:15:17 11° NNE 18:16:55 10° NNE visible
15 Nov - 20:23:06 10° NW 20:27:52 66° NE 20:31:32 10° ESE visible
16 Nov - 05:16:46 10° SSW 05:26:04 24° SE 05:38:46 10° E visible
16 Nov - 07:26:36 10° SW 07:41:29 68° SE 08:01:10 10° ENE daylight
16 Nov - 09:40:36 10° WSW 09:58:17 57° NW 10:16:36 10° NE daylight
16 Nov - 12:02:10 10° WNW 12:16:25 24° NNW 12:28:31 10° NNE daylight
16 Nov - 19:03:14 10° NNW 19:08:18 25° NNE 19:11:57 10° E visible
16 Nov - 21:15:51 10° W 21:19:28 27° SW 21:22:40 10° SSE night (unlit)
17 Nov - 04:01:24 10° SSE 04:04:11 11° SSE 04:07:15 10° SE visible
17 Nov - 06:07:17 10° SSW 06:19:14 43° SE 06:36:28 10° ENE daylight
17 Nov - 08:18:49 10° WSW 08:34:58 82° NW 08:54:55 10° NE daylight
17 Nov - 10:35:46 10° W 10:52:34 38° NNW 11:08:35 10° NNE daylight
17 Nov - 13:02:37 10° NW 13:11:52 15° NNW 13:19:45 10° NNE daylight
17 Nov - 17:43:23 10° NNW 17:47:49 15° NNE 17:51:14 10° NE daylight
17 Nov - 19:54:58 10° NW 20:00:30 80° NE 20:04:21 10° ESE visible
18 Nov - 04:49:12 10° SSW 04:57:36 24° SE 05:09:19 10° E visible
18 Nov - 06:58:34 10° SW 07:12:14 70° SE 07:31:48 10° ENE daylight
18 Nov - 09:12:11 10° WSW 09:28:52 55° NW 09:47:39 10° NE daylight
18 Nov - 11:33:17 10° WNW 11:47:33 24° NNW 12:00:17 10° NNE daylight
18 Nov - 14:04:08 10° NNW 14:07:52 11° N 14:11:15 10° N daylight
18 Nov - 16:23:06 10° N 16:26:20 12° N 16:29:07 10° NNE daylight
18 Nov - 18:34:26 10° NW 18:40:52 33° NNE 18:45:06 10° E visible
18 Nov - 20:48:10 10° W 20:52:02 25° SW 20:55:11 10° SSE visible
19 Nov - 05:39:30 10° SSW 05:50:23 43° SE 06:06:56 10° ENE daylight
19 Nov - 07:50:42 10° WSW 08:05:35 79° NW 08:25:37 10° NE daylight
19 Nov - 10:07:15 10° W 10:23:22 36° NNW 10:39:50 10° NNE daylight
19 Nov - 12:33:16 10° NW 12:43:22 16° NNW 12:52:08 10° NNE daylight
19 Nov - 15:00:34 10° NNW 15:03:39 11° N 15:06:25 10° NNE daylight
19 Nov - 17:13:44 10° NNW 17:20:15 20° NNE 17:24:51 10° ENE daylight
19 Nov - 19:26:38 10° NW 19:33:03 87° SW 19:37:11 10° SE visible
20 Nov - 04:21:42 10° S 04:29:13 23° SE 04:39:51 10° E visible
20 Nov - 06:30:40 10° SW 06:43:08 72° SE 07:02:15 10° ENE daylight
20 Nov - 08:43:59 10° WSW 08:59:31 52° NNW 09:18:28 10° NE daylight
20 Nov - 11:04:34 10° WNW 11:18:38 24° NNW 11:31:51 10° NNE daylight
20 Nov - 13:33:24 10° NNW 13:39:41 13° N 13:45:11 10° NNE daylight
20 Nov - 15:52:22 10° NNW 15:58:35 15° NNE 16:03:23 10° NE daylight
20 Nov - 18:05:27 10° NW 18:13:20 41° NNE 18:18:10 10° E visible
20 Nov - 20:20:14 10° W 20:24:31 24° SW 20:27:48 10° SSE visible
21 Nov - 05:11:50 10° SSW 05:21:40 43° SE 05:37:20 10° ENE visible
21 Nov - 07:22:43 10° WSW 07:36:21 75° NW 07:56:07 10° NE daylight
21 Nov - 09:38:54 10° W 09:54:10 35° NNW 10:10:50 10° NNE daylight
21 Nov - 12:04:04 10° NW 12:14:48 17° NNW 12:24:20 10° NNE daylight
21 Nov - 14:29:17 10° NNW 14:35:39 13° N 14:40:55 10° NNE daylight
21 Nov - 16:44:04 10° NNW 16:52:34 25° NNE 16:58:09 10° ENE daylight
21 Nov - 18:58:03 10° WNW 19:05:30 77° SW 19:10:01 10° SE visible
22 Nov - 03:54:17 10° S 04:00:56 22° SE 04:10:24 10° E visible
22 Nov - 06:02:55 10° SW 06:14:11 74° SE 06:32:34 10° ENE daylight
22 Nov - 08:15:56 10° WSW 08:30:17 49° NNW 08:49:03 10° NE daylight
22 Nov - 10:36:02 10° WNW 10:49:42 23° NNW 11:03:13 10° NNE daylight
22 Nov - 13:03:13 10° NNW 13:11:23 14° N 13:18:25 10° NNE daylight
22 Nov - 15:22:05 10° NNW 15:30:42 19° NNE 15:36:57 10° NE daylight
22 Nov - 17:36:15 10° NW 17:45:41 49° NNE 17:51:09 10° ESE daylight
22 Nov - 19:52:05 10° W 19:56:55 24° SW 20:00:28 10° SSE visible
